W4NRG-1 Weather Reports


Display with metric or nautical units.
time (UTC)temp
F
wind
direction
speed
MPH
gust
MPH
rain 1hr
in
rain 24hr
in
rain mn
in
humidity
%
barometer
mb
20260510231816 75 359 0.0 1.0 0.00 0.00 0.00 40 1013.6
20260510231314 75 326 2.0 3.0 0.00 0.00 0.00 40 1013.5
20260510230810 75 332 2.0 3.0 0.00 0.00 0.00 41 1013.5
20260510230305 75 349 0.0 1.0 0.00 0.00 0.00 41 1013.4
20260510225802 76 205 0.0 2.0 0.00 0.00 0.00 41 1013.6
20260510225258 76 206 0.0 0.0 0.00 0.00 0.00 42 1013.4
20260510224754 0 0.0 0.0 0.00 0.00 0.00 1013.3
20260510224250 0 0.0 0.0 0.00 0.00 0.00 1013.4
20260510223748 0 0.0 0.0 0.00 0.00 0.00 1013.3
20260510223245 77 39 2.0 2.0 0.00 0.00 0.00 37 1013.4
20260510222742 77 39 2.0 2.0 0.00 0.00 0.00 37 1013.5
20260510222239 77 83 1.0 1.0 0.00 0.00 0.00 37 1013.4
20260510221734 77 335 4.0 7.0 0.00 0.00 0.00 37 1013.6
20260510221231 78 1 1.0 2.0 0.00 0.00 0.00 39 1013.8
20260510220728 78 37 1.0 1.0 0.00 0.00 0.00 37 1013.4
20260510220223 80 306 3.0 3.0 0.00 0.00 0.00 35 1013.5
20260510215720 81 66 2.0 3.0 0.00 0.00 0.00 35 1013.7
20260510215218 81 333 3.0 4.0 0.00 0.00 0.00 36 1013.5
20260510214715 81 57 4.0 6.0 0.00 0.00 0.00 35 1013.5
20260510214212 82 327 0.0 2.0 0.00 0.00 0.00 37 1013.6
20260510213709 82 332 2.0 6.0 0.00 0.00 0.00 36 1013.5
20260510213205 82 46 1.0 2.0 0.00 0.00 0.00 36 1013.3
20260510212701 82 69 2.0 6.0 0.00 0.00 0.00 36 1013.5
20260510212159 82 344 0.0 6.0 0.00 0.00 0.00 38 1013.3
20260510211655 82 47 1.0 3.0 0.00 0.00 0.00 39 1013.5
20260510211150 82 63 2.0 4.0 0.00 0.00 0.00 38 1013.5
20260510210647 82 86 2.0 4.0 0.00 0.00 0.00 38 1013.3
20260510210143 82 19 3.0 7.0 0.00 0.00 0.00 38 1013.2
20260510205642 82 50 3.0 6.0 0.00 0.00 0.00 39 1013.0
20260510205138 82 21 3.0 8.0 0.00 0.00 0.00 39 1013.3
20260510204634 83 337 3.0 9.0 0.00 0.00 0.00 38 1012.9
20260510204131 83 7 4.0 6.0 0.00 0.00 0.00 39 1013.1
20260510203628 83 33 3.0 7.0 0.00 0.00 0.00 39 1013.0
20260510203125 83 323 6.0 7.0 0.00 0.00 0.00 38 1012.9
20260510202624 84 59 3.0 9.0 0.00 0.00 0.00 38 1013.2
20260510202120 84 109 5.0 7.0 0.00 0.00 0.00 37 1013.1
20260510201617 84 89 1.0 2.0 0.00 0.00 0.00 36 1013.2
20260510201114 84 324 4.0 6.0 0.00 0.00 0.00 37 1013.3
20260510200610 84 357 0.0 1.0 0.00 0.00 0.00 36 1013.3
20260510200109 84 357 0.0 1.0 0.00 0.00 0.00 36 1013.3
20260510195606 0 0.0 0.0 0.00 0.00 0.00 1013.4
20260510195102 85 84 3.0 3.0 0.00 0.00 0.00 35 1013.7
20260510194556 85 84 3.0 3.0 0.00 0.00 0.00 35 1013.5
20260510194054 0 0.0 0.0 0.00 0.00 0.00 1013.5
20260510193553 0 0.0 0.0 0.00 0.00 0.00 1013.7
20260510193049 0 0.0 0.0 0.00 0.00 0.00 1013.9
20260510192549 0 0.0 0.0 0.00 0.00 0.00 1014.0
20260510192045 0 0.0 0.0 0.00 0.00 0.00 1014.0
20260510191542 0 0.0 0.0 0.00 0.00 0.00 1014.1
20260510191038 0 0.0 0.0 0.00 0.00 0.00 1014.1
20260510190536 84 211 4.0 6.0 0.00 0.00 0.00 36 1014.1
20260510190034 84 211 4.0 6.0 0.00 0.00 0.00 36 1014.3
20260510185530 85 28 3.0 4.0 0.00 0.00 0.00 34 1014.3
20260510185027 84 139 2.0 2.0 0.00 0.00 0.00 36 1014.3
20260510184525 84 187 1.0 2.0 0.00 0.00 0.00 37 1014.0
20260510184020 84 53 1.0 2.0 0.00 0.00 0.00 39 1014.1
20260510183516 84 137 0.0 3.0 0.00 0.00 0.00 36 1014.3
20260510183011 84 162 4.0 6.0 0.00 0.00 0.00 36 1014.3
20260510182509 83 164 2.0 2.0 0.00 0.00 0.00 36 1014.2
20260510182009 83 84 2.0 6.0 0.00 0.00 0.00 36 1014.1
20260510181507 84 314 5.0 6.0 0.00 0.00 0.00 36 1014.3
20260510181003 84 66 3.0 3.0 0.00 0.00 0.00 36 1014.3
20260510180500 83 289 1.0 4.0 0.00 0.00 0.00 37 1014.3
20260510175957 84 189 2.0 3.0 0.00 0.00 0.00 37 1014.6
20260510175453 84 33 2.0 2.0 0.00 0.00 0.00 36 1014.3
20260510174948 83 333 0.0 2.0 0.00 0.00 0.00 35 1014.6
20260510174447 84 321 4.0 8.0 0.00 0.00 0.00 36 1014.4
20260510173943 83 206 1.0 2.0 0.00 0.00 0.00 39 1014.5
20260510173439 83 14 1.0 2.0 0.00 0.00 0.00 42 1014.6
20260510172936 83 298 1.0 7.0 0.00 0.00 0.00 38 1014.7
20260510172432 83 183 2.0 4.0 0.00 0.00 0.00 41 1014.8
20260510171928 82 179 2.0 3.0 0.00 0.00 0.00 40 1014.7
20260510171425 82 326 3.0 6.0 0.00 0.00 0.00 39 1014.8
20260510170922 83 36 2.0 4.0 0.00 0.00 0.00 41 1014.8
20260510170418 82 113 2.0 4.0 0.00 0.00 0.00 39 1014.9
20260510165913 82 325 1.0 3.0 0.00 0.00 0.00 39 1014.9
20260510165410 82 206 1.0 4.0 0.00 0.00 0.00 40 1014.7
20260510164907 81 301 0.0 1.0 0.00 0.00 0.00 42 1015.0
20260510164405 82 32 2.0 4.0 0.00 0.00 0.00 41 1014.9
20260510163905 81 300 1.0 6.0 0.00 0.00 0.00 44 1015.0
20260510163401 81 280 2.0 3.0 0.00 0.00 0.00 39 1015.0
20260510162855 81 186 4.0 6.0 0.00 0.00 0.00 40 1015.1
20260510162353 81 345 2.0 2.0 0.00 0.00 0.00 39 1015.0
20260510161848 80 206 2.0 4.0 0.00 0.00 0.00 42 1015.1
20260510161345 80 79 3.0 4.0 0.00 0.00 0.00 41 1014.9
20260510160842 81 344 1.0 2.0 0.00 0.00 0.00 41 1015.1
20260510160339 80 20 0.0 3.0 0.00 0.00 0.00 43 1015.1
20260510155838 80 49 2.0 3.0 0.00 0.00 0.00 42 1015.1
20260510155335 79 0 0.0 4.0 0.00 0.00 0.00 43 1015.0
20260510154831 79 16 2.0 4.0 0.00 0.00 0.00 44 1015.1
20260510154328 79 103 2.0 6.0 0.00 0.00 0.00 45 1015.0
20260510153827 80 47 4.0 8.0 0.00 0.00 0.00 46 1015.4
20260510153324 80 153 1.0 3.0 0.00 0.00 0.00 46 1015.1
20260510152821 80 203 1.0 4.0 0.00 0.00 0.00 50 1015.1
20260510152318 80 22 1.0 6.0 0.00 0.00 0.00 47 1015.2
20260510151814 79 61 1.0 3.0 0.00 0.00 0.00 50 1015.1
20260510151312 78 3 2.0 4.0 0.00 0.00 0.00 51 1014.9
20260510150808 78 65 0.0 2.0 0.00 0.00 0.00 52 1014.9
20260510150303 79 327 1.0 6.0 0.00 0.00 0.00 50 1014.9
20260510145800 79 30 1.0 6.0 0.00 0.00 0.00 47 1014.8
20260510145257 78 290 0.0 4.0 0.00 0.00 0.00 48 1015.1
20260510144753 78 111 1.0 2.0 0.00 0.00 0.00 49 1015.1
20260510144250 77 320 2.0 2.0 0.00 0.00 0.00 52 1015.0
20260510143749 78 339 3.0 4.0 0.00 0.00 0.00 49 1015.0
20260510143246 78 3 1.0 2.0 0.00 0.00 0.00 50 1014.9
20260510142742 77 21 1.0 2.0 0.00 0.00 0.00 49 1015.1
20260510142239 77 303 0.0 2.0 0.00 0.00 0.00 51 1014.9
20260510141736 77 25 2.0 3.0 0.00 0.00 0.00 51 1015.1
20260510141235 78 319 1.0 2.0 0.00 0.00 0.00 49 1015.2
20260510140731 78 169 1.0 2.0 0.00 0.00 0.00 49 1014.9
20260510140232 76 238 0.0 1.0 0.00 0.00 0.00 54 1014.7
20260510135726 77 346 2.0 2.0 0.00 0.00 0.00 52 1014.8
20260510135222 76 194 0.0 2.0 0.00 0.00 0.00 52 1015.0
20260510134720 76 35 0.0 2.0 0.00 0.00 0.00 55 1014.8
20260510134217 74 355 0.0 0.0 0.00 0.00 0.00 56 1014.7
20260510133712 73 319 0.0 1.0 0.00 0.00 0.00 59 1014.7
20260510133208 73 35 1.0 2.0 0.00 0.00 0.00 60 1014.8
20260510132704 71 152 0.0 1.0 0.00 0.00 0.00 61 1015.0
20260510132202 70 28 2.0 2.0 0.00 0.00 0.00 68 1015.1
20260510131659 69 24 0.0 1.0 0.00 0.00 0.00 68 1014.9
20260510131157 69 220 0.0 1.0 0.00 0.00 0.00 69 1014.9
20260510130653 68 181 0.0 2.0 0.00 0.00 0.00 71 1014.8
20260510130150 67 185 1.0 2.0 0.00 0.00 0.00 73 1014.6
20260510125646 67 191 1.0 1.0 0.00 0.00 0.00 73 1014.7
20260510125143 67 222 0.0 2.0 0.00 0.00 0.00 73 1014.8
20260510124640 66 191 1.0 2.0 0.00 0.00 0.00 75 1014.9
20260510124137 65 206 1.0 2.0 0.00 0.00 0.00 77 1014.5
20260510123632 64 205 0.0 1.0 0.00 0.00 0.00 79 1014.9
20260510123128 64 191 0.0 1.0 0.00 0.00 0.00 81 1014.5
20260510122625 63 263 1.0 2.0 0.00 0.00 0.00 83 1014.7
20260510122120 62 191 0.0 0.0 0.00 0.00 0.00 89 1014.7
20260510121618 60 217 0.0 0.0 0.00 0.00 0.00 97 1014.4
20260510121115 60 217 0.0 0.0 0.00 0.00 0.00 97 1014.3
20260510120613 59 193 1.0 1.0 0.00 0.00 0.00 98 1014.4
20260510120108 58 194 0.0 0.0 0.00 0.00 0.00 98 1014.3
20260510115605 58 194 0.0 0.0 0.00 0.00 0.00 98 1014.4
20260510115102 58 185 0.0 0.0 0.00 0.00 0.00 98 1014.0
20260510114558 58 185 0.0 0.0 0.00 0.00 0.00 98 1014.2
20260510114054 57 181 0.0 0.0 0.00 0.00 0.00 98 1014.1
20260510113549 57 181 0.0 0.0 0.00 0.00 0.00 98 1014.0
20260510113047 57 180 1.0 1.0 0.00 0.00 0.00 98 1013.7
20260510112543 56 196 0.0 0.0 0.00 0.00 0.00 98 1013.9
20260510112040 56 143 0.0 0.0 0.00 0.00 0.00 98 1013.8
20260510111537 55 143 0.0 0.0 0.00 0.00 0.00 98 1013.9
20260510111033 55 114 0.0 0.0 0.00 0.00 0.00 98 1013.7
20260510110529 55 114 0.0 0.0 0.00 0.00 0.00 98 1013.6
20260510110025 55 114 0.0 0.0 0.00 0.00 0.00 98 1013.7
20260510105520 55 114 0.0 0.0 0.00 0.00 0.00 98 1013.4
20260510105016 55 114 0.0 0.0 0.00 0.00 0.00 98 1013.4
20260510104513 55 114 0.0 0.0 0.00 0.00 0.00 98 1013.3
20260510104009 55 111 0.0 0.0 0.00 0.00 0.00 98 1013.3
20260510103506 55 115 0.0 0.0 0.00 0.00 0.00 98 1013.0
20260510103002 54 175 0.0 0.0 0.00 0.00 0.00 98 1013.1
20260510102458 54 166 0.0 0.0 0.00 0.00 0.00 98 1013.2
20260510101954 54 166 0.0 0.0 0.00 0.00 0.00 98 1012.9
20260510101452 54 165 0.0 0.0 0.00 0.00 0.00 98 1012.9
20260510100950 54 165 0.0 0.0 0.00 0.00 0.00 98 1012.9
20260510100446 54 165 0.0 0.0 0.00 0.00 0.00 98 1012.9
20260510095943 54 166 0.0 0.0 0.00 0.00 0.00 98 1012.7
20260510095438 54 167 0.0 0.0 0.00 0.00 0.00 98 1012.6
20260510094937 54 150 0.0 0.0 0.00 0.00 0.00 98 1012.7
20260510094432 54 147 0.0 0.0 0.00 0.00 0.00 98 1012.5
20260510093929 54 163 0.0 0.0 0.00 0.00 0.00 98 1012.3
20260510093424 54 164 0.0 0.0 0.00 0.00 0.00 98 1012.4
20260510092921 54 181 0.0 0.0 0.00 0.00 0.00 98 1012.4
20260510092419 55 145 0.0 0.0 0.00 0.00 0.00 97 1012.3
20260510091918 55 145 0.0 0.0 0.00 0.00 0.00 98 1012.1
20260510091416 54 146 0.0 0.0 0.00 0.00 0.00 98 1012.3
20260510090912 54 146 0.0 0.0 0.00 0.00 0.00 97 1012.0
20260510090409 54 146 0.0 0.0 0.00 0.00 0.00 97 1012.3
20260510085905 55 146 0.0 0.0 0.00 0.00 0.00 97 1012.1
20260510085400 55 144 0.0 0.0 0.00 0.00 0.00 97 1011.8
20260510084855 55 144 0.0 0.0 0.00 0.00 0.00 97 1012.1
20260510084353 55 143 0.0 0.0 0.00 0.00 0.00 97 1011.8
20260510083849 55 141 0.0 0.0 0.00 0.00 0.00 97 1011.8
20260510083346 55 133 0.0 0.0 0.00 0.00 0.00 97 1011.7
20260510082841 55 131 0.0 0.0 0.00 0.00 0.00 97 1011.7
20260510082339 55 116 0.0 0.0 0.00 0.00 0.00 97 1011.7
20260510081838 55 116 0.0 0.0 0.00 0.00 0.00 97 1011.7
20260510081334 55 116 0.0 0.0 0.00 0.00 0.00 97 1011.8
20260510080831 55 115 0.0 0.0 0.00 0.00 0.00 97 1011.7
20260510080325 55 115 0.0 0.0 0.00 0.00 0.00 97 1011.7
20260510075822 55 115 0.0 0.0 0.00 0.00 0.00 97 1011.6
20260510075320 55 115 0.0 0.0 0.00 0.00 0.00 97 1011.5
20260510074816 54 114 0.0 0.0 0.00 0.00 0.00 97 1011.5
20260510074314 55 114 0.0 0.0 0.00 0.00 0.00 97 1011.5
20260510073809 54 114 0.0 0.0 0.00 0.00 0.00 97 1011.6
20260510073306 55 114 0.0 0.0 0.00 0.00 0.00 96 1011.5
20260510072801 55 114 0.0 0.0 0.00 0.00 0.00 96 1011.3
20260510072258 55 114 0.0 0.0 0.00 0.00 0.00 96 1011.4
20260510071754 55 114 0.0 0.0 0.00 0.00 0.00 96 1011.7
20260510071251 55 114 0.0 0.0 0.00 0.00 0.00 96 1011.6
20260510070750 55 114 0.0 0.0 0.00 0.00 0.00 96 1011.8
20260510070247 55 114 0.0 0.0 0.00 0.00 0.00 96 1011.7
20260510065746 55 114 0.0 0.0 0.00 0.00 0.00 96 1011.6
20260510065244 55 114 0.0 0.0 0.00 0.00 0.00 95 1011.6
20260510064740 56 114 0.0 0.0 0.00 0.00 0.00 95 1011.5
20260510064238 56 114 0.0 0.0 0.00 0.00 0.00 95 1011.6
20260510063734 56 114 0.0 0.0 0.00 0.00 0.00 96 1011.5
20260510063230 56 114 0.0 0.0 0.00 0.00 0.00 95 1011.7
20260510062727 56 114 0.0 0.0 0.00 0.00 0.00 95 1011.4
20260510062223 56 114 0.0 0.0 0.00 0.00 0.00 95 1011.6
20260510061718 57 114 0.0 0.0 0.00 0.00 0.00 96 1011.6
20260510061216 56 114 0.0 0.0 0.00 0.00 0.00 96 1011.5
20260510060712 56 105 0.0 0.0 0.00 0.00 0.00 96 1011.6
20260510060209 56 91 0.0 0.0 0.00 0.00 0.00 96 1011.8
20260510055706 56 68 0.0 0.0 0.00 0.00 0.00 96 1011.6
20260510055203 56 68 0.0 0.0 0.00 0.00 0.00 96 1011.7
20260510054658 56 67 0.0 0.0 0.00 0.00 0.00 96 1011.6
20260510054154 56 67 0.0 0.0 0.00 0.00 0.00 96 1011.6
20260510053654 56 67 0.0 0.0 0.00 0.00 0.00 96 1011.6
20260510053151 56 67 0.0 0.0 0.00 0.00 0.00 96 1011.6
20260510052646 56 68 0.0 0.0 0.00 0.00 0.00 96 1011.6
20260510052143 56 68 0.0 0.0 0.00 0.00 0.00 96 1011.7
20260510051639 56 67 0.0 0.0 0.00 0.00 0.00 96 1011.7
20260510051135 56 67 0.0 0.0 0.00 0.00 0.00 96 1011.7
20260510050633 56 67 0.0 0.0 0.00 0.00 0.00 96 1012.1
20260510050130 56 67 0.0 0.0 0.00 0.00 0.00 96 1011.8
20260510045626 56 67 0.0 0.0 0.00 0.00 0.00 96 1011.5
20260510045123 56 67 0.0 0.0 0.00 0.00 0.00 96 1011.8
20260510044619 56 67 0.0 0.0 0.00 0.00 0.00 96 1011.7
20260510044117 56 67 0.0 0.0 0.00 0.00 0.00 96 1012.0
20260510043613 55 67 0.0 0.0 0.00 0.00 0.00 96 1011.9
20260510043109 55 67 0.0 0.0 0.00 0.00 0.00 96 1011.5
20260510042607 55 67 0.0 0.0 0.00 0.00 0.00 96 1011.7
20260510042102 55 67 0.0 0.0 0.00 0.00 0.00 96 1011.6
20260510041559 55 67 0.0 0.0 0.00 0.00 0.00 96 1011.6
20260510041057 55 67 0.0 0.0 0.00 0.00 0.00 96 1011.6
20260510040554 55 67 0.0 0.0 0.00 0.00 0.00 96 1011.7
20260510040050 55 67 0.0 0.0 0.00 0.00 0.00 96 1011.8
20260510035546 55 40 0.0 0.0 0.00 0.00 0.00 95 1011.7
20260510035046 55 40 0.0 0.0 0.00 0.00 0.00 95 1011.5
20260510034544 55 40 0.0 0.0 0.00 0.00 0.00 95 1011.6
20260510034041 55 40 0.0 0.0 0.00 0.00 0.00 95 1011.7
20260510033537 55 40 0.0 0.0 0.00 0.00 0.00 95 1011.5
20260510033035 55 40 0.0 0.0 0.00 0.00 0.00 95 1011.4
20260510032531 55 40 0.0 0.0 0.00 0.00 0.00 95 1011.2
20260510032026 55 40 0.0 0.0 0.00 0.00 0.00 95 1011.4
20260510031522 56 40 0.0 0.0 0.00 0.00 0.00 95 1011.3
20260510031018 56 40 0.0 0.0 0.00 0.00 0.00 95 1011.2
20260510030513 56 40 0.0 0.0 0.00 0.00 0.00 94 1011.2
20260510030011 56 40 0.0 0.0 0.00 0.00 0.00 94 1011.2
20260510025508 56 40 0.0 0.0 0.00 0.00 0.00 94 1011.2
20260510025005 56 40 0.0 0.0 0.00 0.00 0.00 94 1010.9
20260510024502 56 40 0.0 0.0 0.00 0.00 0.00 94 1011.1
20260510023958 56 40 0.0 0.0 0.00 0.00 0.00 93 1010.9
20260510023454 56 40 0.0 0.0 0.00 0.00 0.00 93 1010.8
20260510022951 56 40 0.0 0.0 0.00 0.00 0.00 93 1011.0
20260510022451 57 40 0.0 0.0 0.00 0.00 0.00 93 1010.8
20260510021950 57 40 0.0 0.0 0.00 0.00 0.00 93 1010.8
20260510021448 57 40 0.0 0.0 0.00 0.00 0.00 93 1010.8
20260510020945 57 32 0.0 0.0 0.00 0.00 0.00 92 1010.5
20260510020444 57 32 0.0 0.0 0.00 0.00 0.00 92 1010.9
20260510015940 57 32 0.0 0.0 0.00 0.00 0.00 92 1010.8
20260510015436 57 32 0.0 0.0 0.00 0.00 0.00 92 1010.9
20260510014932 58 32 0.0 0.0 0.00 0.00 0.00 92 1010.8
20260510014430 58 32 0.0 0.0 0.00 0.00 0.00 91 1010.8
20260510013926 58 31 0.0 0.0 0.00 0.00 0.00 91 1010.8
20260510013421 58 32 0.0 0.0 0.00 0.00 0.00 90 1010.6
20260510012916 58 32 0.0 0.0 0.00 0.00 0.00 90 1010.6
20260510012412 58 32 0.0 0.0 0.00 0.00 0.00 90 1010.5
20260510011906 59 32 0.0 0.0 0.00 0.00 0.00 89 1010.3
20260510011401 59 32 0.0 0.0 0.00 0.00 0.00 89 1010.4
20260510010858 0 0.0 0.0 0.00 0.00 0.00 1010.2
20260510010355 0 0.0 0.0 0.00 0.00 0.00 1010.2
20260510005852 60 31 0.0 0.0 0.00 0.00 0.00 87 1010.4
20260510005348 60 31 0.0 0.0 0.00 0.00 0.00 87 1010.0
20260510004846 60 31 0.0 0.0 0.00 0.00 0.00 86 1010.1
20260510004343 0 0.0 0.0 0.00 0.00 0.00 1010.1
20260510003841 0 0.0 0.0 0.00 0.00 0.00 1010.1
20260510003338 62 31 0.0 0.0 0.00 0.00 0.00 82 1010.1
20260510002836 62 31 0.0 0.0 0.00 0.00 0.00 81 1010.1
20260510002334 62 31 0.0 0.0 0.00 0.00 0.00 81 1009.9
20260510001830 63 31 0.0 0.0 0.00 0.00 0.00 80 1010.0
20260510001329 64 31 0.0 0.0 0.00 0.00 0.00 78 1010.1
20260510000824 64 31 0.0 0.0 0.00 0.00 0.00 78 1009.8
20260510000322 64 31 0.0 0.0 0.00 0.00 0.00 76 1009.7
20260509235819 65 31 0.0 0.0 0.00 0.00 0.00 75 1009.8
20260509235315 66 31 0.0 0.0 0.00 0.00 0.00 73 1009.7
20260509234811 67 31 0.0 0.0 0.00 0.00 0.00 72 1009.6
20260509234308 67 32 0.0 0.0 0.00 0.00 0.00 71 1009.6
20260509233806 68 31 0.0 0.0 0.00 0.00 0.00 68 1009.6
20260509233303 69 31 0.0 0.0 0.00 0.00 0.00 67 1009.5
20260509232759 70 31 0.0 0.0 0.00 0.00 0.00 66 1009.5
20260509232257 70 29 0.0 1.0 0.00 0.00 0.00 64 1009.5